Погода в Зырянке

Погода в Зырянке : погода сейчас, прогноз погоды и архив. Всё, что Вы хотите узнать о погоде в Зырянке!

Хотите узнать прогноз погоды в Зырянке? Тогда Вам сюда: Погода в Зырянке

Поиск расширенной информации на нашем сайте:

Другие новости

Новости СМИ2

Главная страница сайта

Новости сайта

03.07.2017

Напоминаем, что на нашем специализированном сайте Метеоцентр.Азия вы можете получить высокодетализированные автоматические прогнозы погоды по пунктам России, СНГ и мира в авиационном формате (включающие направление и скорость ветра, видимость, явления погоды, количество и форму облачности, нижнюю и верхнюю границу облачности).


Погода в Зырянке - сегодня

Время (UTC), дата Ветер
(°,м/с) 
Видим.   Явления Облачность Т
(°С)
Тd
(°С)
f(%) Тe
(°С)
Pmin
(гПа)
dP
(гПа)
Po
(мм)
O2
(г/м3)
Тmin Tmax R s Состояние
почвы
15 17.06.18 350 (С) 20000 м    4/0 средняя 
[Ac trans]
+11.6 +12  1007  0.4  751  290           
18 17.06.18 340 (С) 20000 м    8/6 1200 м средняя 
[Cu Sc|Ac trans]
+12.4 +7.9 74 +13  1007.6  0.6  752  288           
21 17.06.18 350 (С) 20000 м    8/6 1200 м средняя 
[Sc|Ac trans]
+14.9 +9.1 68 +15  1008.5  0.9  753  286  +11.6        влажная 
00 18.06.18 340 (С) 20000 м    4/0 средняя 
[Ac trans]
+19 +9.4 54 +20  1008.8  0.4  753  282           
03 18.06.18 340 (С) 20000 м    4/4 1500 м 
[Cu med, cong]
+20.5 +9 48 +21  1008.3  -0.5  752  280           
06 18.06.18 340 (С) 20000 м    4/4 1500 м 
[Cu med, cong]
+21 +8.2 44 +21  1008  -0.1  752  280           
12 18.06.18 010 (С) 20000 м    10/0 верхняя 
[Ci sp]
+15.9 +6.5 54 +16  1010.1  1.1  754  286           
15 18.06.18 300 (СЗ) 20000 м    6/0 верхняя 
[Ci sp]
+10.3 +5.9 74 +11  1010.9  0.5  754  292           
18 18.06.18 330 (СЗ) 20000 м    ясно 
+11.8 +7.2 73 +12  1011.2  0.4  755  290           
00 19.06.18 330 (СЗ) 20000 м    ясно 
+17.5 +7.4 51 +18  1011.9  755  285           
03 19.06.18 340 (С) 20000 м    3/1 1500 м верхняя 
[Cu hum|Ci fib]
+19.8 +7.3 44 +20  1011.4  -0.6  755  282           
06 19.06.18 350 (С) 20000 м    3/1 1500 м верхняя 
[Cu hum|Ci fib]
+20.1 +6.9 42 +20  1010.7  -0.7  754  282           
12 19.06.18 010 (С) 20000 м    4/0 средняя, верхняя 
[Ac trans|Ci fib]
+14.6 +4 49 +15  1011.6  0.4  755  288           
15 19.06.18 340 (С) 20000 м    6/0 средняя, верхняя 
[Ac trans|Ci fib]
+9.9 +6.2 78 +10  1011.6  755  292           
18 19.06.18 350 (С) 20000 м    ясно 
+10.7 +5.5 70 +10  1011.8  0.2  755  292           
00 20.06.18 330 (СЗ) 20000 м    ясно 
+17.4 +5.7 46 +18  1011.6  -0.2  755  285           
03 20.06.18 020 (С) 20000 м    6/0 верхняя 
[Ci fib]
+18 +5.5 44 +19  1010.8  -0.8  754  284           
06 20.06.18 030 (СВ) 20000 м    3/0 верхняя 
[Ci fib]
+21.8 +9.8 46 +23  1009.5  -1.1  753  279           
09 20.06.18 350 (С) 20000 м    ясно 
+18.3 +4.2 39 +19  1009.3  -0.3  753  284    +21.8       
12 20.06.18 350 (С) 20000 м    ясно 
+14.3 +3.8 49 +14  1009.8  0.4  754  288           
15 20.06.18 320 (СЗ) 20000 м    ясно 
+9.4 +5 74 +10  1009.3  -0.5  753  293           
18 20.06.18 тихо ()   20000 м    ясно 
+10 +5.4 73 +10  1009.5  0.1  753  292           
00 21.06.18 100 (В) 20000 м    3/3 1000 м 
[Cu med, cong]
+20.2 +8.8 48 +20  1008.4  -0.9  753  281           
03 21.06.18 150 (ЮВ) 20000 м    3/3 1000 м 
[Cu hum]
+24.5 +10.5 41 +26  1007.2  -1.1  752  276           
06 21.06.18 100 (В) 20000 м    4/4 1000 м 
[Cu hum]
+25.3 +10.8 40 +28  1006.1  -1.1  751  275           
Время (UTC), дата Ветер
(°,м/с) 
Видим.   Явления Облачность Т
(°С)
Тd
(°С)
f(%) Тe
(°С)
Pmin
(гПа)
dP
(гПа)
Po
(мм)
O2
(г/м3)
Тmin Tmax R s Состояние
почвы

Для получения пояснительной информации подведите курсор к названию столбца.

ПОГОДА в Зырянке - архив

Всё, что Вы хотите узнать о погоде в Зырянке - удобно и подробно!

Выберите нужную дату (начиная с 1 января 2015* года) и нажмите кнопку "Найти".
Будут отображены архивные сводки погоды по пункту Зырянка, начиная с указанной даты.


Отображать данные в формате CSV (для использования в таблицах Excel)


Внимание! Наш архив погоды предназначен исключительно для личного некоммерческого использования в познавательных целях. Если Вам необходимы официальные справки о состоянии погоды (для производственных, юридических, коммерческих и т.п. целей), обращайтесь в органы Росгидромета.

*Примечание: данная дата относится к архиву по метеостанциям СССР (Россия, СНГ, Балтия).
Архив по метеостанциям Зарубежной Европы и Азии (кроме Китая) хранится 10 дней, по другим регионам земного шара (Китай, Африка, Америка, Австралия, Океания) - 1 день.

Зырянка - район местоположения метеостанции


Название, широта, долгота, высота метеостанции:
Зырянка 65.7°ш. 150.9°д. 43 м над ур. моря [Российская Федерация]

Дополнительная информация

В oтличие oт бoльшинства пoгoдных сайтoв мы публикуем пoдрoбную метеoинфoрмацию в детальнoм прoфессиoнальнoм фoрмате.

Характеристики температуры и влажнoсти вoздуха измеряются на высoте 2 м в тени вдали oт зданий и деревьев.
Скoрoсть ветра измеряется на высoте 10 м (на урoвне рoста челoвека скoрoсть ветра ниже в 1.5-2 раза). Если метеoстанция нахoдится в гoрoде или в лесу, тo скoрoсть ветра занижена на 2-4 м/с пo сравнению с oткрытым местoм. Скoрoсть ветра над акватoриями крупных рек и oзёр, а также на вершинах хoлмoв на 2-5 м/с выше, чем в oбычных услoвиях.
Атмoсфернoе давление в разных тoчках местнoсти мoжет значительнo oтличаться oт давления на метеoстанции, в зависимoсти oт услoвий рельефа (при пoдъёме на 10 м давление пoнижается примернo на 1 мм рт.ст.).